Weather History for KVCT - July, 2013

Change the Weather History Date:

Friday, July 5, 2013

  Actual Average Record
Temperature  
Mean Temperature 82 °F 84 °F  
Max Temperature 97 °F 93 °F 102 °F (2009)
Min Temperature 67 °F 74 °F 64 °F (1924)
Degree Days  
Heating Degree Days 0 0  
Month to date heating degree days 0 0  
Since 1 June heating degree days 0 0  
Since 1 July heating degree days 0 0  
Cooling Degree Days 17 18  
Month to date cooling degree days 88 90  
Year to date cooling degree days 1314 1257  
Since 1 June cooling degree days 680 598  
Growing Degree Days 32 (Base 50)    
Moisture  
Dew Point 69 °F    
Average Humidity 66    
Maximum Humidity 97    
Minimum Humidity 34    
Precipitation  
Precipitation 0.00 in 0.15 in 3.28 in (1966)
Month to date precipitation 0.04 0.77  
Year to date precipitation 9.60 20.61  
Snow  
Snow 0.00 in - - ()
Month to date snowfall 0.0  
Since 1 June snowfall 0.0  
Since 1 July snowfall 0.0  
Snow Depth 0.00 in    
Sea Level Pressure  
Sea Level Pressure 29.92 in    
Wind  
Wind Speed 6 mph (ESE)    
Max Wind Speed 21 mph    
Max Gust Speed 24 mph    
Visibility 10 miles    
Events      
T = Trace of Precipitation, MM = Missing Value Source: NWS Daily Summary

Daily Weather History Graph

Daily Weather History Graph

Search for Another Location

Airport or City:

Trip Planner

Search our weather history database for the weather conditions in past years. The results will help you decide how hot, cold, wet, or windy it might be!

Date:

Astronomy

Jul. 05, 2013 Rise Set
Actual Time 6:34 AM CDT 8:29 PM CDT
Civil Twilight 6:07 AM CDT 8:56 PM CDT
Nautical Twilight 5:35 AM CDT 9:29 PM CDT
Astronomical Twilight 5:00 AM CDT 10:03 PM CDT
Moon 4:30 AM CDT (7/5) 6:29 PM CDT (7/5)
Length of Visible Light 14h 48m
Length of Day
13h 55m
Waning Crescent, 6% of the Moon is Illuminated
Jul 5
Waning Crescent
Jul 8
New
Jul 15
First Quarter
Jul 22
Full
Jul 29
Last Quarter

Hourly Weather History & Observations

Time (CDT) Temp. Heat Index Dew Point Humidity Pressure Visibility Wind Dir Wind Speed Gust Speed Precip Events Conditions
12:51 AM 75.9 °F - 72.0 °F 87% 29.96 in 10.0 mi SSE 6.9 mph - N/A   Clear
1:51 AM 75.9 °F - 72.0 °F 87% 29.96 in 10.0 mi South 5.8 mph - N/A   Clear
2:51 AM 73.9 °F - 71.1 °F 91% 29.94 in 10.0 mi South 4.6 mph - N/A   Clear
3:51 AM 72.0 °F - 70.0 °F 93% 29.94 in 10.0 mi Calm Calm - N/A   Clear
4:51 AM 71.1 °F - 70.0 °F 96% 29.94 in 10.0 mi NE 4.6 mph - N/A   Clear
5:51 AM 69.1 °F - 68.0 °F 96% 29.94 in 10.0 mi North 3.5 mph - N/A   Clear
6:51 AM 70.0 °F - 68.0 °F 93% 29.94 in 10.0 mi Calm Calm - N/A   Clear
7:51 AM 73.0 °F - 70.0 °F 90% 29.95 in 10.0 mi NNE 3.5 mph - N/A   Clear
8:51 AM 79.0 °F - 73.0 °F 82% 29.97 in 10.0 mi Calm Calm - N/A   Clear
9:51 AM 82.9 °F 88.0 °F 72.0 °F 69% 29.97 in 10.0 mi Calm Calm - N/A   Clear
10:51 AM 87.1 °F 92.0 °F 70.0 °F 57% 29.96 in 10.0 mi Variable 3.5 mph - N/A   Clear
11:51 AM 90.0 °F 91.7 °F 64.9 °F 43% 29.96 in 10.0 mi Calm Calm - N/A   Clear
12:51 PM 93.0 °F 95.0 °F 64.9 °F 39% 29.94 in 10.0 mi NE 4.6 mph - N/A   Clear
1:51 PM 93.9 °F 96.1 °F 64.9 °F 38% 29.92 in 10.0 mi NE 5.8 mph - N/A   Partly Cloudy
2:51 PM 95.0 °F 96.0 °F 63.0 °F 34% 29.90 in 10.0 mi SE 9.2 mph - N/A   Clear
3:51 PM 96.1 °F 98.8 °F 64.9 °F 36% 29.88 in 10.0 mi ENE 4.6 mph - N/A   Partly Cloudy
4:51 PM 97.0 °F 100.4 °F 66.0 °F 36% 29.85 in 10.0 mi ESE 10.4 mph 19.6 mph N/A   Clear
5:51 PM 93.9 °F 97.0 °F 66.0 °F 40% 29.85 in 10.0 mi ESE 17.3 mph - N/A   Clear
6:51 PM 90.0 °F 92.8 °F 66.9 °F 46% 29.85 in 10.0 mi SE 20.7 mph - N/A   Clear
7:51 PM 86.0 °F 90.7 °F 70.0 °F 59% 29.86 in 10.0 mi SE 16.1 mph - N/A   Clear
8:51 PM 82.9 °F 87.5 °F 71.1 °F 67% 29.88 in 10.0 mi SE 10.4 mph - N/A   Clear
9:51 PM 81.0 °F 85.8 °F 73.0 °F 77% 29.90 in 10.0 mi SE 5.8 mph - N/A   Clear
10:51 PM 78.1 °F - 73.0 °F 84% 29.91 in 10.0 mi SSE 4.6 mph - N/A   Clear
11:51 PM 77.0 °F - 73.9 °F 90% 29.92 in 10.0 mi Calm Calm - N/A   Clear